Regional Weather Roundup
Issued by NWS

Home | Current Version | Previous Version | Text Only | Print | Product List | Glossary Off
Versions: 1 2 3 4 5 6 7 8 9 10 11 12 13 14 15 16 17 18 19 20 21 22 23 24 25 26 27 28

000
ASUS45 KCYS 240310
RWRWY

WYOMING REGIONAL WEATHER ROUNDUP
NATIONAL WEATHER SERVICE CHEYENNE WY
900 PM MDT TUE AUG 23 2016

NOTE:  "FAIR" INDICATES FEW OR NO CLOUDS BELOW 12,000 FEET
WITH NO SIGNIFICANT WEATHER AND/OR OBSTRUCTIONS TO VISIBILITY.

WYZ001-240400-
YELLOWSTONE NATIONAL PARK

CITY           SKY/WX    TMP DP  RH WIND       PRES   REMARKS
LK YELLOWSTONE   N/A     53  16  23 VRB5      30.30R
W YELLOWSTONE  NOT AVBL

$$
WYZ002>013-054>058-071-098>099-240400-
NORTHERN WYOMING

CITY           SKY/WX    TMP DP  RH WIND       PRES   REMARKS
JACKSON        FAIR      55  19  24 SE3       30.20R
CODY           FAIR      63  28  27 N3        30.16R
GREYBULL       FAIR      74  21  13 N18       30.04R
WORLAND        FAIR      72  21  14 N10       30.05R
SHERIDAN       FAIR      59  43  55 S5        30.11R
BUFFALO        FAIR      65  28  24 NW10      30.16R
GILLETTE       FAIR      60  29  30 NW9       30.10R
HULETT         FAIR      63  32  31 NE5       30.11R
NEWCASTLE      FAIR      63  28  27 NW7       30.06R

$$
WYZ014>020-022>026-101>103-240400-
CENTRAL WYOMING

CITY           SKY/WX    TMP DP  RH WIND       PRES   REMARKS
BIG PINEY      FAIR      51  16  24 N12       30.24R
PINEDALE       FAIR      55  18  22 N7        30.25R
DUBOIS         CLOUDY    57  16  19 NW5       30.24R
LANDER         FAIR      70  19  14 N10       30.12R
RIVERTON       FAIR      69  14  12 N17       30.11R
CASPER         FAIR      67  25  20 NE13      30.09R
DOUGLAS        FAIR      61  25  25 E8        30.11R

$$
WYZ021-027>030-104>119-240400-
SOUTHERN WYOMING

CITY           SKY/WX    TMP DP  RH WIND       PRES   REMARKS
EVANSTON       FAIR      61  20  20 W9        30.25R
FORT BRIDGER   FAIR      63  18  17 SW6       30.27R
ROCK SPRINGS   FAIR      66  17  15 NW9       30.21R
DIXON          FAIR      67  35  30 S7G20     30.24R
RAWLINS        CLOUDY    70  31  23 S20G26    30.19R
SARATOGA       MOCLDY    66  32  28 SE16      30.22R
LARAMIE        CLOUDY    64  32  30 S12       30.21S
CHEYENNE       FAIR      65  35  33 SE9       30.17R
TORRINGTON     FAIR      68  26  20 NE7       30.05R
PINE BLUFFS    FAIR      64  32  29 S9        30.12R

$$




USA.gov is the U.S. government's official web portal to all federal, state and local government web resources and services.